Reid Restricted Landing Area

Jump to: basic info | weather | runways | comments

Related pages: nearby airports | nearby navaids | notams | map

Basic information (top)

Codes: 6IL6
Location: lon 42.118401, lat -88.407898, elev 920 ft / 280 m msl
Status: small_airport

Weather (top)

Current conditions for Dupage Airport 15nm (27km) SSE (rec'd 2014/04/25 05:52Z):

KDPA 250552Z 08003KT 6SM RA SCT039 OVC075 11/07 A2964 RMK AO2 SLP037 P0003 60004 T01060067 10161 20106 402000033 55015

Airport forecast for Dupage Airport 15nm (27km) SSE (rec'd 2014/04/25 06:27Z):

TAF KDPA 250525Z 2506/2606 05007KT 6SM -SHRA SCT015 OVC050 
      TEMPO 2507/2509 5SM -RA SCT009 OVC015 
     FM251000 34010KT P6SM BKN020 
     FM251300 33012G17KT P6SM FEW040 
     FM251600 30015G23KT P6SM FEW250 
     FM260100 27010KT P6SM BKN100

Runways (top)

E/W: 3,000 x 105 ft (914 x 32 m) — grass — not lighted

N/S: 2,100 x 105 ft (640 x 32 m) — grass — not lighted

Latest comments (top)

No comments yet for Reid Restricted Landing Area

More... (top)

See also NOTAMs and nearby airports and navaids, or visit the Reid Restricted Landing Area page at the main OurAirports website..